Location: Crescent
(42.8242°N, 73.7329°W)
Time: 05:21:14
(UTC+00:00)

Vanguard 2 Rocket - Pass Details

Date: 21 February 2026
Orbit: 553 x 3286 km, 32.9° (Epoch: 13 March)

Event Time Altitude Azimuth Distance (km) Brightness Sun altitude
Rises 16:31:48 0° 237° (WSW) 7,148 11.7 36.1°
Reaches altitude 10° 16:36:43 10° 233° (SW) 6,213 11.6 36.3°
Maximum altitude 16:55:36 52° 165° (SSE) 3,453 11.7 36.7°
Drops below altitude 10° 17:09:42 10° 95° (E) 4,784 10.7 36.8°
Sets 17:12:55 0° 90° (E) 5,472 10.9 36.8°
